カタログに戻る

FALCON 9 R/B

運用中HEO
NORAD 60234·ROCKET BODY·🇺🇸 United States

打ち上げ Jul 8, 2024 から Cape Canaveral Space Force Station

Loading…

次のパス (今後24時間)

TLE

最新Source: Space-Track

元期: Sep 6, 2026, 07:38 UTC

1 60234U 24127B   26249.31855929 -.00000470  00000-0  48703-3 0  9993
2 60234  27.7334 357.6593 8345651  11.6090 359.0488  1.03948158  7935

AllMySatでFALCON 9 R/Bをリアルタイム追跡

Download on the App Store